Location: Blangy-Tronville
(49.8790°N, 2.4226°E)
Time: 06:54:30
(UTC+00:00)

Cosmos 2151 Rocket - Pass Details

Date: 18 November 2025
Orbit: 612 x 636 km, 82.5° (Epoch: 10 December)

Event Time Altitude Azimuth Distance (km) Brightness Sun altitude
Rises 17:53:57 0° 183° (S) 2,918 7.2 -17.6°
Reaches altitude 10° 17:56:11 10° 181° (S) 2,017 6.3 -18.0°
Maximum altitude 18:00:38 73° 98° (E) 671 3.5 -18.7°
Enters shadow 18:05:06 10° 14° (NNE) 2,014 6.0 -19.4°
